Location: Kershaw
(34.5481°N, 80.5823°W)
Time: 15:08:29
(UTC+00:00)

Transit 4A - Pass Details

Date: 08 October 2022
Orbit: 871 x 972 km, 66.8° (Epoch: 29 November)

Event Time Altitude Azimuth Distance (km) Brightness Sun altitude
Rises 11:29:46 0° 332° (NNW) 3,474 10.5 0.7°
Reaches altitude 10° 11:32:15 10° 332° (NNW) 2,527 9.9 1.2°
Maximum altitude 11:38:05 85° 246° (WSW) 879 7.9 2.4°
Drops below altitude 10° 11:43:54 10° 158° (SSE) 2,517 10.7 3.6°
Sets 11:46:23 0° 157° (SSE) 3,459 11.4 4.1°
